Location: Siloam Springs
(36.1880°N, 94.5400°W)
Time: 05:45:04
(UTC-06:00)

ISS - Visible Passes

Search period start: 03 December 2022 00:00
Search period end: 13 December 2022 00:00
Orbit: 414 x 420 km, 51.6° (Epoch: 03 December)

Date Brightness Start Highest point End Pass type
(mag) Time Alt. Az. Time Alt. Az. Time Alt. Az.
03 Dec -2.1 18:40:25 10° NNW 18:42:10 23° N 18:42:10 23° N visible
04 Dec -2.3 17:52:36 10° NNW 17:55:13 21° NNE 17:56:37 16° ENE visible
04 Dec -0.8 19:28:56 10° WNW 19:29:35 15° WNW 19:29:35 15° WNW visible
05 Dec -3.8 18:40:40 10° NW 18:44:00 81° SW 18:44:19 69° SSE visible
06 Dec -3.7 17:52:33 10° NW 17:55:50 53° NE 17:59:05 10° ESE visible
06 Dec -0.6 19:30:43 10° W 19:32:13 12° SW 19:32:29 12° SW visible
07 Dec -1.3 18:41:30 10° WNW 18:44:12 23° SW 18:46:53 10° S visible
08 Dec -2.5 17:52:54 10° WNW 17:56:05 43° SW 17:59:16 10° SSE visible
10 Dec -0.4 17:54:21 10° W 17:56:04 13° SW 17:57:45 10° SSW visible
